Regional Weather Roundup
Issued by NWS

Home | Current Version | Previous Version | Text Only | Print | Product List | Glossary Off
Versions: 1 2 3 4 5 6 7 8 9 10 11 12 13 14 15 16 17 18 19 20 21 22 23 24 25 26 27 28 29 30 31 32 33 34 35 36 37 38 39 40 41 42 43 44 45 46 47 48 49 50

000
ASUS43 KMPX 232110
RWRMN
WEATHER ROUNDUP FOR MINNESOTA
NATIONAL WEATHER SERVICE TWIN CITIES/CHANHASSEN MN
400 PM CDT SAT MAY 23 2015


NOTE: "FAIR" INDICATES FEW OR NO CLOUDS BELOW 12,000 FEET WITH NO
SIGNIFICANT WEATHER AND/OR OBSTRUCTIONS TO VISIBILITY. N/A MEANS
CURRENT SKY AND/OR WEATHER CONDITIONS ARE NOT AVAILABLE.

MNZ060>063-068>070-232200-
   Twin Cities Metro

CITY           SKY/WX    TMP DP  RH WIND       PRES   REMARKS
TWIN CITIES    CLOUDY    73  41  31 CALM      30.20F
ST PAUL        CLOUDY    72  46  39 CALM      30.20F
CRYSTAL        CLOUDY    69  49  48 N10       30.20F
BLAINE         CLOUDY    68  50  52 N13       30.21F
LAKEVILLE      CLOUDY    70  43  37 SE3       30.19F
EDEN PRAIRIE   CLOUDY    69  49  48 N7        30.19F
SOUTH ST PAUL  CLOUDY    73  41  31 SE3       30.19F
LAKE ELMO      CLOUDY    72  43  35 S5        30.21F
$$
MNZ001>005-007-008-013>017-022>024-027-028-232200-
   Northwest Minnesota

CITY           SKY/WX    TMP DP  RH WIND       PRES   REMARKS
BEMIDJI        MOSUNNY   74  39  28 CALM      30.14F
HALLOCK        SUNNY     79  28  15 SW8       30.08F
ROSEAU         SUNNY     79  34  19 S12G17    30.10F
WARROAD        SUNNY     77  41  27 CALM      30.11F
THIEF RVR FALL MOSUNNY   75  39  27 SW13      30.12F
CROOKSTON      SUNNY     75  41  29 S10       30.12F
FOSSTON        MOSUNNY   75  43  31 SW9       30.15F
DETROIT LAKES  MOSUNNY   70  43  37 S12       30.18F
MOORHEAD       MOSUNNY   72  43  35 SE12      30.15F
PARK RAPIDS    PTSUNNY   74  42  31 S14       30.16F
MAHNOMEN       FAIR      72  40  31 S8        30.15F
$$
MNZ006-009>011-018-025>026-232200-
   North Central Minnesota

CITY           SKY/WX    TMP DP  RH WIND       PRES   REMARKS
BAUDETTE       SUNNY     77  35  21 S13       30.11F
FLAG ISLAND    SUNNY     64  48  55 S13       30.08F
INTL FALLS     SUNNY     79  35  20 W12       30.10F
WASKISH        SUNNY     72  52  49 CALM      30.13F
BIG FORK       SUNNY     79  37  22 SW8       30.14S
LONGVILLE      MOSUNNY   73  39  29 W10       30.17S
GRAND RAPIDS   MOSUNNY   73  37  27 W10G17    30.16F
CRANE LAKE     SUNNY     77  30  18 CALM      30.12F
ORR            MOSUNNY   79  28  15 CALM      30.09F
COOK           PTSUNNY   75  36  23 S7        30.13F
WALKER         FAIR      72  39  30 S7        30.15F
$$
MNZ012-019>021-037-232200-
   Northeast Minnesota

CITY           SKY/WX    TMP DP  RH WIND       PRES   REMARKS
DULUTH         MOSUNNY   76  34  21 SW14      30.16F
ELY            MOSUNNY   79  30  17 SW10      30.12F
HIBBING        SUNNY     77  31  18 SW9       30.14F
EVELETH        SUNNY     77  34  20 SW8       30.15F
DULUTH HARBOR  MOSUNNY   79  34  19 SW12G22   30.14F
TWO HARBORS    SUNNY     81  45  28 S12G17    30.12F
SILVER BAY     SUNNY     79  30  17 SW12G20   30.12F
GRAND MARAIS     N/A     59  37  44 W8        30.11F
G MARAIS ARPRT LGT RAIN  68  36  30 S9G21     30.15F
$$
MNZ029>031-032-039>041-046>048-054>057-064-232200-
   West Central Minnesota

CITY           SKY/WX    TMP DP  RH WIND       PRES   REMARKS
FERGUS FALLS   PTSUNNY   70  43  37 S13G20    30.17F
WHEATON        PTSUNNY   68  45  42 SE13      30.17F
MORRIS         PTSUNNY   70  45  40 S14       30.16F
ALEXANDRIA     PTSUNNY   67  42  40 S16       30.20F
ELBOW LAKE     CLOUDY    67  44  42 SE15G21   30.17F
WADENA         PTSUNNY   66  43  42 SE9G20    30.19S
GLENWOOD       PTSUNNY   66  43  42 SE12G18   30.21S
APPLETON       CLOUDY    68  46  45 SE8       30.16F
BENSON         PTSUNNY   68  43  40 S7        30.18F
ORTONVILLE     PTSUNNY   68  48  49 S12       30.15F
MADISON        CLOUDY    66  48  52 SE13      30.16F
WILLMAR        FAIR      66  48  52 SE12      30.20F
$$
MNZ033>034-036-042>043-049>051-058-059-232200-
   Central Minnesota

CITY           SKY/WX    TMP DP  RH WIND       PRES   REMARKS
ST CLOUD       CLOUDY    65  46  50 E5        30.21F
SAUK CENTRE    CLOUDY    67  45  45 SE10      30.21S
PAYNESVILLE    CLOUDY    63  44  50 E8        30.21F
AITKIN         PTSUNNY   73  39  29 S13G18    30.17S
PINE RIVER     PTSUNNY   70  45  40 S10       30.21S
BRAINERD       PTSUNNY   69  44  40 S15       30.20F
STAPLES        PTSUNNY   66  37  34 S9        30.20F
LONG PRAIRIE   CLOUDY    66  43  42 S10       30.21F
LITTLE FALLS   PTSUNNY   66  37  34 S9        30.21F
LITCHFIELD     CLOUDY    64  48  55 NE8       30.21F
BUFFALO        CLOUDY    64  51  64 NE7       30.22F
MAPLE LAKE     CLOUDY    64  53  65 NE6       30.22F
$$
MNZ037-044-045-052-053-232200-
   East Central Minnesota

CITY           SKY/WX    TMP DP  RH WIND       PRES   REMARKS
PRINCETON      CLOUDY    66  46  48 CALM      30.23S
MORA           CLOUDY    64  41  42 SW7       30.24S
CAMBRIDGE      CLOUDY    68  50  52 CALM      30.21S
RUSH CITY      CLOUDY    65  46  50 CALM      30.23F
MOOSE LAKE     PTSUNNY   73  45  35 SW13G20   30.17S
HINCKLEY       FAIR      66  46  48 S12       30.22S
CLOQUET        MOSUNNY   75  34  22 SW9       30.16F
MCGREGOR       MOSUNNY   72  43  35 SW12G20   30.19S
$$
MNZ071>073-080-081-089-090-097-098-232200-
   Southwest Minnesota

CITY           SKY/WX    TMP DP  RH WIND       PRES   REMARKS
MONTEVIDEO     CLOUDY    66  48  52 S9        30.18S
GRANITE FALLS  CLOUDY    67  50  54 E9        30.17F
CANBY          CLOUDY    66  48  51 SE7       30.16F
MARSHALL       CLOUDY    70  46  43 SE13      30.13F
REDWOOD FALLS  CLOUDY    67  48  50 E7        30.16F
OLIVIA         PTSUNNY   66  50  55 E8        30.17F
PIPESTONE      CLOUDY    68  48  49 SE10        N/A
WINDOM         CLOUDY    70  48  46 S14G20    30.15F
WORTHINGTON    CLOUDY    70  45  40 SE14G20   30.14F
JACKSON        CLOUDY    68  54  60 S5        30.15F
TRACY          CLOUDY    71  49  46 SE8       30.14F
SLAYTON        CLOUDY    69  44  39 SE16      30.14F
$$
MNZ065>067-074>077-082>085-091>093-232200-
   South Central Minnesota

CITY           SKY/WX    TMP DP  RH WIND       PRES   REMARKS
MANKATO        CLOUDY    73  45  35 SE8       30.16F
NEW ULM        CLOUDY    72  43  35 SE8       30.16F
ST JAMES       CLOUDY    75  43  31 SE16G22   30.15F
FAIRMONT       CLOUDY    72  45  37 S21G29    30.14F
GLENCOE        PTSUNNY   67  53  59 NE6       30.19F
FARIBAULT      CLOUDY    72  43  35 CALM      30.19F
OWATONNA       CLOUDY    73  39  29 S9        30.18F
WASECA         CLOUDY    73  41  31 SE8       30.18F
ALBERT LEA     CLOUDY    75  41  29 S7        30.17F
$$
MNZ078>079-086>088-094>096-232200-
   Southeast Minnesota

CITY           SKY/WX    TMP DP  RH WIND       PRES   REMARKS
ROCHESTER      CLOUDY    76  42  29 SW12      30.19F
RED WING       PTSUNNY   75  39  27 SE5       30.18F
STANTON        CLOUDY    73  40  30 SE6       30.18F
DODGE CENTER   PTSUNNY   73  39  29 S8        30.19F
WINONA         CLOUDY    73  45  35 SE3       30.19F
AUSTIN         PTSUNNY   73  46  38 S6G16     30.17F
PRESTON        PTSUNNY   74  40  28 S13G18    30.19F
$$
ABBREVIATIONS USED IN REMARKS
   TC - TEMPERATURES IN CELSIUS
  WCI - WIND CHILL INDEX
   HX - HEAT INDEX
  VSB - VISIBILITY
$$


USA.gov is the U.S. government's official web portal to all federal, state and local government web resources and services.